Regional Weather Roundup
Issued by NWS

Home | Current Version | Previous Version | Graphics & Text | Print | Product List | Glossary On
Versions: 1 2 3 4 5 6 7 8 9 10 11 12 13 14 15 16 17 18 19 20 21 22 23 24 25 26 27
000
ASUS45 KBOU 012307
RWRCO

WEATHER ROUNDUP FOR COLORADO
NATIONAL WEATHER SERVICE DENVER/BOULDER CO
400 PM MST THU DEC 01 2016

NOTE: "FAIR" INDICATES FEW OR NO CLOUDS BELOW 12000 FEET WITH NO
SIGNIFICANT WEATHER AND/OR OBSTRUCTIONS TO VISIBILITY.

COZ001>005-013-030-031-020000-
...NORTHWEST COLORADO...

CITY           SKY/WX    TMP DP  RH WIND       PRES   REMARKS
CRAIG          LGT SNOW  27  21  78 CALM      29.98S
HAYDEN         FAIR      25  18  74 NE3       29.97S
MEEKER         LGT SNOW  26  23  88 SE3       29.97R FOG
MOUNT WERNER   NOT AVBL
STEAMBOAT SPGS CLOUDY    24  17  73 CALM      29.95F
WALDEN           N/A     23  12  63 S7        29.90S WCI  15
$$

COZ006>008-011-020000-
...WEST CENTRAL VALLEYS...

CITY           SKY/WX    TMP DP  RH WIND       PRES   REMARKS
GRAND JUNCTION CLOUDY    38  17  42 N7        29.99S
MONTROSE       CLOUDY    35  12  38 NW5       29.98R WCI  31
EAGLE          CLOUDY    30  18  59 SW12      29.96R WCI  21
RIFLE          CLOUDY    33  18  53 W7        29.99R WCI  27
DELTA          MOCLDY    40  15  35 E5        29.97S
NUCLA          MOCLDY    36  12  38 CALM      29.98S
$$

COZ017>023-064>068-020000-
...SOUTHWEST COLORADO...

CITY           SKY/WX    TMP DP  RH WIND       PRES   REMARKS
DURANGO        FAIR      35  12  38 VRB5      29.93S WCI  31
CORTEZ         FAIR      35  19  52 S8        29.95S WCI  29
PAGOSA SPRINGS FAIR      31  12  45 CALM      29.93S
TELLURIDE      CLOUDY    25  13  61 W8        29.93R WCI  16
WOLF CREEK PAS FAIR      12  12 100 SW10      29.93S WCI  -1
$$

COZ009-010-012-014-032>034-037-058>063-020000-
...CENTRAL COLORADO...

CITY           SKY/WX    TMP DP  RH WIND       PRES   REMARKS
ASPEN          CLOUDY    25  13  60 N7        29.91R WCI  17
BUENA VISTA    CLOUDY    34   7  32 S8        29.86R WCI  27
COPPER MTN     NOT AVBL
BERTHOUD PASS  CLOUDY     7  -6  56 NW12      29.84R WCI  -9
COTTONWOOD PAS MOCLDY    28   7  40 W9        29.86S WCI  20
GUNNISON       MOCLDY    24  10  55 W3        29.93S
KREMMLING      CLOUDY    32  18  55 CALM      29.94S
LEADVILLE      MOCLDY    22   9  57 N8        29.85R WCI  12
MONARCH PASS     N/A     12   9  85 W21       29.97R WCI  -6
SALIDA         MOCLDY    35   7  31 SW15G22   29.94R WCI  26
SUNLIGHT       SNOW     N/A N/A N/A SW9       29.93R VSB 1/2
WILKERSON PASS FAIR      23   3  42 CALM      29.88R
$$

COZ069>075-020000-
...SAN LUIS VALLEY/SANGRE DE CRISTO MOUNTAINS...

CITY           SKY/WX    TMP DP  RH WIND       PRES   REMARKS
ALAMOSA        CLOUDY    31   9  39 CALM      29.91S
LA VETA PASS   FAIR      21   7  53 NE13      29.89R WCI   9
SAGUACHE       FAIR      28   9  43 S6        29.92S WCI  22
$$

COZ035-036-038>040-020000-
...NORTHERN COLORADO FRONT RANGE...

CITY           SKY/WX    TMP DP  RH WIND       PRES   REMARKS
DENVER INTL AP FAIR      37   6  27 E7        29.90R
DMNS CITY PARK   N/A     40   4  22 E2G9      29.90R
AURORA         PTCLDY    37   6  26 E6        29.90R
FRONT RANGE AP NOT AVBL
ERIE MUNI ARPT FAIR      40   4  23 NE9       29.91R
BOULDER MUN AP MOCLDY    36   9  32 N7        29.91R
CENTENNIAL     FAIR      38   5  25 E6        29.89R
BROOMFIELD     PTCLDY    39   3  22 E3        29.90R
FORT COLLINS   FAIR      37   7  28 E8        29.93R
LONGMONT       FAIR      40   7  25 NE5       29.93S
$$

COZ041-046-047-076>085-087-088-020000-
...PIKES PEAK/PALMER DIVIDE AND SOUTHERN FOOTHILLS...

CITY           SKY/WX    TMP DP  RH WIND       PRES   REMARKS
COLO. SPRINGS  FAIR      36   3  25 S9        29.91R
A. F. ACADEMY  FAIR      34   2  26 S8        29.89R WCI  27
SCHRIEVER AFB  NOT AVBL
ELLICOTT       FAIR     N/A N/A N/A SE8       29.91R
FALCON         FAIR      32   2  28 S6        29.91R WCI  27
FORT CARSON    FAIR      36   4  26 SE8       29.90R
LIMON          FAIR      35   6  29 S6        29.92S WCI  30
MONUMENT HILL  FAIR      32   5  32 SE6       29.90R WCI  26
TRINIDAD       FAIR      42   8  24 E7        29.89R
$$

COZ042>045-048>051-090-091-020000-
...NORTHEAST COLORADO...

CITY           SKY/WX    TMP DP  RH WIND       PRES   REMARKS
GREELEY ARPT   FAIR      38   6  26 CALM      29.94R
AKRON          FAIR      36  11  35 N3        29.93S
BURLINGTON     FAIR      38   7  27 W6        29.95R
WRAY           NOT AVBL
STERLING       FAIR      37  18  44 N7        29.93R
HOLYOKE        FAIR      41  12  30 NW6       29.94S
FORT MORGAN    FAIR      40   6  24 CALM      29.93S
$$

COZ086-089-092>099-020000-
...SOUTHEAST COLORADO...

CITY           SKY/WX    TMP DP  RH WIND       PRES   REMARKS
PUEBLO         FAIR      38   9  30 E7        29.91S
LA JUNTA       FAIR      39  11  31 NE7       29.93S
LAMAR          FAIR      43  12  28 NE8       29.93S
SPRINGFIELD      N/A     40   8  26 SE7       29.94R
$$




USA.gov is the U.S. government's official web portal to all federal, state and local government web resources and services.